When you browse on this site, cookies collect data to enhance your experience and personalize the content and advertising you see.
Visit our Privacy Policy to learn more. By continuing to use the site, you agree to this use of cookies and data.
  • In United Kingdom
  • List of Countries
  • For 7 days
  • Water Temperature
  • Weather Map
  • Weather Widgets
  • user-avatar
    Login

    Hourly Weather Varadero

    Today, 7 June, Sunday

    Time Temperature Precipitation Wind Pressure Humidity
    00:00 +28°C° 0 mm 6 mps 760 mmHg 87%
    01:00 +27°C° 0 mm 7 mps 760 mmHg 89%
    02:00 +27°C° 0 mm 6 mps 760 mmHg 90%
    03:00 +27°C° 0 mm 5 mps 759 mmHg 90%
    04:00 +27°C° 0 mm 5 mps 759 mmHg 90%
    05:00 +27°C° 0 mm 5 mps 759 mmHg 90%
    06:00 +27°C° 0 mm 4 mps 760 mmHg 90%
    07:00 +27°C° 0 mm 4 mps 760 mmHg 90%
    08:00 +28°C° 0 mm 5 mps 760 mmHg 86%
    09:00 +30°C° 0 mm 5 mps 760 mmHg 82%
    10:00 +32°C° 0 mm 5 mps 760 mmHg 78%
    11:00 +32°C° 0.6 mm 5 mps 760 mmHg 76%
    12:00 +33°C° 0.6 mm 5 mps 760 mmHg 74%
    13:00 +33°C° 0.6 mm 5 mps 760 mmHg 72%
    14:00 +34°C° 0.7 mm 5 mps 759 mmHg 68%
    15:00 +34°C° 0.7 mm 4 mps 759 mmHg 64%
    16:00 +34°C° 0.7 mm 4 mps 758 mmHg 61%
    17:00 +33°C° 0 mm 3 mps 758 mmHg 66%
    18:00 +31°C° 0 mm 3 mps 759 mmHg 71%
    19:00 +30°C° 0 mm 3 mps 759 mmHg 76%
    20:00 +29°C° 0 mm 3 mps 759 mmHg 79%
    21:00 +28°C° 0 mm 3 mps 760 mmHg 83%
    22:00 +27°C° 0 mm 3 mps 760 mmHg 87%
    23:00 +27°C° 0 mm 3 mps 760 mmHg 88%

    Tomorrow, 8 June, Monday

    Time Temperature Precipitation Wind Pressure Humidity
    00:00 +27°C° 0 mm 3 mps 760 mmHg 89%
    01:00 +26°C° 0 mm 3 mps 760 mmHg 90%
    02:00 +26°C° 0 mm 3 mps 760 mmHg 92%
    03:00 +26°C° 0 mm 3 mps 759 mmHg 93%
    04:00 +26°C° 0 mm 3 mps 759 mmHg 95%
    05:00 +26°C° 0 mm 3 mps 760 mmHg 93%
    06:00 +26°C° 0 mm 3 mps 760 mmHg 91%
    07:00 +27°C° 0 mm 4 mps 760 mmHg 89%
    08:00 +28°C° 0 mm 3 mps 760 mmHg 83%
    09:00 +30°C° 0 mm 3 mps 760 mmHg 76%
    10:00 +31°C° 0 mm 3 mps 761 mmHg 70%
    11:00 +33°C° 0 mm 3 mps 761 mmHg 64%
    12:00 +34°C° 0 mm 2 mps 761 mmHg 57%
    13:00 +35°C° 0 mm 2 mps 761 mmHg 50%
    14:00 +34°C° 0 mm 3 mps 760 mmHg 58%
    15:00 +33°C° 0 mm 4 mps 760 mmHg 66%
    16:00 +32°C° 0 mm 6 mps 759 mmHg 74%
    17:00 +30°C° 0.1 mm 5 mps 760 mmHg 78%
    18:00 +29°C° 0.1 mm 5 mps 760 mmHg 81%
    19:00 +29°C° 0.1 mm 4 mps 760 mmHg 85%
    20:00 +28°C° 0 mm 4 mps 760 mmHg 86%
    21:00 +28°C° 0 mm 5 mps 760 mmHg 87%
    22:00 +28°C° 0 mm 5 mps 760 mmHg 88%
    23:00 +27°C° 0 mm 4 mps 760 mmHg 88%

    Day after tomorrow, 9 June, Tuesday

    Time Temperature Precipitation Wind Pressure Humidity
    00:00 +27°C° 0 mm 4 mps 760 mmHg 89%
    01:00 +27°C° 0 mm 4 mps 759 mmHg 89%
    02:00 +27°C° 0 mm 4 mps 759 mmHg 90%
    03:00 +26°C° 0 mm 4 mps 759 mmHg 91%
    04:00 +26°C° 0 mm 3 mps 759 mmHg 92%
    05:00 +27°C° 0 mm 4 mps 759 mmHg 92%
    06:00 +27°C° 0 mm 4 mps 760 mmHg 91%
    07:00 +27°C° 0 mm 4 mps 760 mmHg 91%
    08:00 +28°C° 0 mm 4 mps 760 mmHg 84%
    09:00 +29°C° 0 mm 4 mps 760 mmHg 78%
    10:00 +32°C° 0 mm 4 mps 760 mmHg 72%
    11:00 +31°C° 0 mm 3 mps 760 mmHg 72%
    12:00 +30°C° 0 mm 3 mps 760 mmHg 72%
    13:00 +30°C° 0 mm 2 mps 760 mmHg 71%
    14:00 +30°C° 0 mm 3 mps 760 mmHg 75%
    15:00 +30°C° 0 mm 3 mps 760 mmHg 79%
    16:00 +29°C° 0 mm 4 mps 759 mmHg 82%
    17:00 +29°C° 0.3 mm 4 mps 759 mmHg 84%
    18:00 +29°C° 0.3 mm 5 mps 759 mmHg 85%
    19:00 +28°C° 0.3 mm 5 mps 760 mmHg 87%
    20:00 +28°C° 0.2 mm 5 mps 760 mmHg 88%
    21:00 +28°C° 0.2 mm 5 mps 760 mmHg 89%
    22:00 +27°C° 0.2 mm 5 mps 760 mmHg 90%
    23:00 +27°C° 0 mm 5 mps 760 mmHg 91%

    10 June, Wednesday

    Time Temperature Precipitation Wind Pressure Humidity
    00:00 +27°C° 0 mm 5 mps 760 mmHg 91%
    01:00 +26°C° 0 mm 5 mps 759 mmHg 92%
    02:00 +26°C° 0 mm 5 mps 759 mmHg 92%
    03:00 +26°C° 0 mm 5 mps 759 mmHg 92%
    04:00 +26°C° 0 mm 5 mps 759 mmHg 92%
    05:00 +26°C° 0 mm 5 mps 760 mmHg 91%
    06:00 +27°C° 0 mm 5 mps 760 mmHg 90%
    07:00 +27°C° 0 mm 4 mps 760 mmHg 89%
    08:00 +28°C° 0.1 mm 5 mps 760 mmHg 85%
    09:00 +29°C° 0.1 mm 5 mps 761 mmHg 80%
    10:00 +30°C° 0.1 mm 5 mps 761 mmHg 75%
    11:00 +32°C° 0.4 mm 5 mps 761 mmHg 73%
    12:00 +33°C° 0.4 mm 6 mps 760 mmHg 70%
    13:00 +33°C° 0.4 mm 6 mps 760 mmHg 68%
    14:00 +33°C° 0.5 mm 6 mps 760 mmHg 69%
    15:00 +33°C° 0.5 mm 6 mps 760 mmHg 71%
    16:00 +32°C° 0.5 mm 6 mps 759 mmHg 72%
    17:00 +30°C° 0.9 mm 6 mps 759 mmHg 77%
    18:00 +29°C° 0.9 mm 6 mps 760 mmHg 81%
    19:00 +28°C° 0.9 mm 7 mps 760 mmHg 86%
    20:00 +27°C° 0.1 mm 6 mps 760 mmHg 87%
    21:00 +27°C° 0.1 mm 6 mps 761 mmHg 88%
    22:00 +27°C° 0.1 mm 5 mps 761 mmHg 89%
    23:00 +26°C° 0 mm 5 mps 761 mmHg 90%

    11 June, Thursday

    Time Temperature Precipitation Wind Pressure Humidity
    00:00 +26°C° 0 mm 5 mps 760 mmHg 91%
    01:00 +26°C° 0 mm 5 mps 760 mmHg 92%
    02:00 +26°C° 0 mm 5 mps 760 mmHg 92%
    03:00 +26°C° 0 mm 5 mps 760 mmHg 93%
    04:00 +26°C° 0 mm 5 mps 760 mmHg 93%
    05:00 +26°C° 0.1 mm 5 mps 760 mmHg 92%
    06:00 +26°C° 0.1 mm 5 mps 760 mmHg 90%
    07:00 +27°C° 0.1 mm 6 mps 760 mmHg 89%
    08:00 +28°C° 0 mm 6 mps 761 mmHg 84%
    09:00 +29°C° 0 mm 6 mps 761 mmHg 79%
    10:00 +30°C° 0 mm 6 mps 761 mmHg 74%
    11:00 +30°C° 0 mm 6 mps 761 mmHg 72%
    12:00 +32°C° 0 mm 6 mps 761 mmHg 71%
    13:00 +32°C° 0 mm 6 mps 761 mmHg 69%
    14:00 +30°C° 0 mm 6 mps 760 mmHg 70%
    15:00 +30°C° 0 mm 6 mps 760 mmHg 72%
    16:00 +30°C° 0 mm 6 mps 759 mmHg 73%
    17:00 +29°C° 0 mm 6 mps 760 mmHg 77%
    18:00 +28°C° 0 mm 6 mps 760 mmHg 81%
    19:00 +27°C° 0 mm 6 mps 760 mmHg 84%
    20:00 +27°C° 0.1 mm 6 mps 760 mmHg 85%
    21:00 +27°C° 0.1 mm 6 mps 761 mmHg 85%
    22:00 +26°C° 0.1 mm 6 mps 761 mmHg 85%
    23:00 +26°C° 0 mm 6 mps 761 mmHg 86%

    12 June, Friday

    Time Temperature Precipitation Wind Pressure Humidity
    00:00 +26°C° 0 mm 5 mps 760 mmHg 86%
    01:00 +26°C° 0 mm 5 mps 760 mmHg 87%
    02:00 +25°C° 0 mm 5 mps 760 mmHg 87%
    03:00 +25°C° 0 mm 4 mps 760 mmHg 88%
    04:00 +25°C° 0 mm 4 mps 760 mmHg 89%
    05:00 +25°C° 0 mm 4 mps 760 mmHg 88%
    06:00 +26°C° 0 mm 3 mps 760 mmHg 87%
    07:00 +26°C° 0 mm 3 mps 760 mmHg 86%
    08:00 +28°C° 0 mm 3 mps 760 mmHg 80%
    09:00 +29°C° 0 mm 3 mps 761 mmHg 73%
    10:00 +30°C° 0 mm 3 mps 761 mmHg 67%
    11:00 +32°C° 0 mm 4 mps 761 mmHg 67%
    12:00 +32°C° 0 mm 4 mps 760 mmHg 66%
    13:00 +32°C° 0 mm 4 mps 760 mmHg 65%
    14:00 +32°C° 0.1 mm 5 mps 760 mmHg 67%
    15:00 +32°C° 0.1 mm 5 mps 759 mmHg 68%
    16:00 +30°C° 0.1 mm 5 mps 759 mmHg 70%
    17:00 +29°C° 0.1 mm 5 mps 759 mmHg 74%
    18:00 +29°C° 0.1 mm 5 mps 759 mmHg 78%
    19:00 +28°C° 0.1 mm 5 mps 759 mmHg 83%
    20:00 +28°C° 0.2 mm 5 mps 760 mmHg 84%
    21:00 +27°C° 0.2 mm 5 mps 760 mmHg 85%
    22:00 +27°C° 0.2 mm 5 mps 760 mmHg 86%
    23:00 +26°C° 0 mm 5 mps 760 mmHg 86%
    Show more